This demonstration page uses our WeatherBlox Daily Observations layout. Learn more.

Left ArrowRight Arrow

Hourly Observations for February 7, 2016

Temp ( °F °C ) Dew Point ( °F °C ) Humidity (%) Winds ( mph kmh ) Pressure ( in mb ) Visibility ( mi km ) Precip ( " mm )
12:59 am 00:59 Mostly Cloudy 33 0.6 27 -2.8 78 78 Calm 30.26 1025 10 16 0.00 0.00
1:59 am 01:59 Mostly Cloudy 35 1.7 30 -1.1 82 82 Calm 30.27 1025 10 16 0.00 0.00
2:59 am 02:59 Partly Cloudy 36 2.2 27 -2.8 70 70 NNE 8 13 30.22 1024 10 16 0.00 0.00
3:59 am 03:59 Mostly Cloudy 36 2.2 27 -2.8 70 70 NNE 6 9 30.22 1023 10 16 0.00 0.00
4:59 am 04:59 Mostly Cloudy 38 3.3 27 -2.8 65 65 NE 10 17 30.16 1021 10 16 0.00 0.00
5:59 am 05:59 Cloudy 38 3.3 24 -4.4 57 57 NE 8 13 30.16 1022 10 16 0.00 0.00
6:59 am 06:59 Cloudy 39 3.9 26 -3.3 60 60 NE 12 19 30.15 1021 10 16 0.00 0.00
7:59 am 07:59 Cloudy 40 4.4 27 -2.8 60 60 NE 15 24 30.13 1020 10 16 0.00 0.00
8:59 am 08:59 Cloudy 41 5 28 -2.2 60 60 NNE 15 24 30.11 1020 10 16 0.00 0.00
9:59 am 09:59 Cloudy 41 5 25 -3.9 53 53 NNE 17 28 30.10 1019 10 16 0.00 0.00
10:59 am 10:59 Cloudy 41 5 26 -3.3 55 55 NNE 17 28 30.11 1020 10 16 0.00 0.00
11:59 am 11:59 Cloudy 42 5.6 25 -3.9 51 51 NNE 16 26 30.06 1018 10 16 0.00 0.00
12:59 pm 12:59 Cloudy 42 5.6 26 -3.3 53 53 NNE 21 33 29.95 1014 10 16 0.00 0.00
1:59 pm 13:59 Cloudy 41 5 28 -2.2 60 60 NNE 23 37 29.94 1014 10 16 0.00 0.00
2:59 pm 14:59 Cloudy 42 5.6 28 -2.2 58 58 N 24 39 29.93 1014 10 16 0.00 0.00
3:59 pm 15:59 Cloudy 42 5.6 29 -1.7 60 60 N 25 41 29.89 1012 10 16 0.00 0.00
4:59 pm 16:59 Cloudy 42 5.6 29 -1.7 60 60 NNE 28 44 29.88 1012 10 16 0.00 0.00
5:59 pm 17:59 Cloudy 42 5.6 29 -1.7 60 60 N 26 43 29.84 1011 10 16 0.00 0.00
6:59 pm 18:59 Cloudy 42 5.6 29 -1.7 60 60 NNE 26 43 29.83 1010 10 16 0.00 0.00
7:59 pm 19:59 Cloudy 41 5 31 -0.6 67 67 N 22 35 29.80 1009 9 14 0.00 0.00
8:10 pm 20:10 Cloudy 41 5 31 -0.6 67 67 N 17 28 29.80 1009 9 14 0.01 0.25
8:59 pm 20:59 Cloudy 40 4.4 33 0.6 77 77 N 22 35 29.79 1009 6 10 0.02 0.51
9:59 pm 21:59 Cloudy 40 4.4 32 0 73 73 N 24 39 29.77 1008 7 11 0.03 0.76
10:59 pm 22:59 Cloudy 41 5 32 0 70 70 N 22 35 29.74 1007 9 14 0.00 0.03
11:31 pm 23:31 Cloudy 42 5.6 31 -0.6 65 65 N 22 35 29.71 1006 10 16 0.00 0.00
11:42 pm 23:42 Cloudy 42 5.6 32 0 68 68 N 25 41 29.71 1006 10 16 0.00 0.00
11:56 pm 23:56 Cloudy 43 6 32 0 66 66 N 24 39 29.71 1006 10 16 0.02 0.51
11:59 pm 23:59 Cloudy 42 5.6 32 0 68 68 N 26 43 29.70 1006 10 16 0.02 0.51

Powered by AerisWeather